Location: Old Broadwell Mill Observatory
(33.8015°N, 85.8137°W)
Time: 23:06:20
(UTC-06:00)

Daily predictions for brighter satellites

Satellite Brightness Start Highest point End
(mag) Time Altitude Azimuth Time Altitude Azimuth Time Altitude Azimuth
GEOS 3 Rocket 4.0 17:51:40 10° NE 17:56:45 48° ESE 18:01:49 10° SSW
Cosmos 2360 Rocket 3.6 17:56:08 10° NNE 17:59:51 18° ENE 18:03:32 10° E
Cosmos 1980 Rocket 3.1 17:55:23 10° NNW 18:00:57 57° WSW 18:06:29 10° S
SL-8 R/B 3.7 17:58:40 10° NW 18:03:30 89° NE 18:08:20 10° SE
Cosmos 1975 Rocket 3.5 18:03:57 10° NNW 18:08:14 67° W 18:12:30 10° S
OAO 3 Copernicus 4.4 18:03:27 10° W 18:08:33 77° N 18:13:24 11° E
Helios 1B rocket 4.4 18:08:12 10° E 18:09:02 10° E 18:09:53 10° ESE
Cosmos 1633 3.5 18:06:58 10° SSE 18:10:06 26° E 18:13:13 10° NNE
FREGAT/IRIS 3.1 18:12:45 10° SE 18:15:38 37° ENE 18:18:30 10° N
CZ-3C R/B 3.4 18:12:29 10° SW 18:16:16 14° SSW 18:18:25 10° SSE
ALOS 2.9 18:14:09 10° SE 18:18:16 32° ENE 18:22:24 10° N
Cosmos 1833 4.3 18:13:16 10° S 18:18:49 55° ESE 18:24:20 10° NNE
Cosmos 1818 3.9 18:20:44 10° SW 18:26:08 72° WNW 18:31:37 10° NNE
Cosmos 1536 Rocket 3.7 18:22:45 10° N 18:27:09 54° E 18:31:31 10° SSE
ASTRO E2 3.8 18:24:16 10° W 18:28:02 39° SSW 18:31:26 12° SE
Meteor 1-18 Rocket 4.5 18:24:30 10° NNW 18:30:03 74° W 18:35:39 10° S
SJ-6B 2.8 18:27:45 10° SSE 18:31:48 70° ENE 18:35:45 10° N
FengYun 1-2 T 4.4 18:28:40 10° SE 18:33:53 48° ENE 18:39:08 10° N
SL-16 R/B 2.2 18:28:28 10° NNW 18:34:10 89° WSW 18:39:49 10° SSE
TSX-5 3.5 18:31:34 10° SSW 18:34:49 69° WNW 18:37:58 10° NNE
Cosmos 1023 Rocket 4.4 18:30:02 10° S 18:34:59 58° ESE 18:40:01 10° NNE
Nadezhda 1 Rocket 4.4 18:29:57 10° NNW 18:35:57 64° W 18:41:55 10° S
DNEPR-1 R/B 3.3 18:33:10 10° NNW 18:37:22 75° ENE 18:41:44 10° SSE
Resurs 01 Rocket 2.1 18:33:38 10° SE 18:37:43 38° ENE 18:41:48 10° N
Cosmos 676 Rocket 4.3 18:36:28 10° SSW 18:41:37 69° WNW 18:46:48 10° NNE
Gbstr 26 Del rocket 2.5 18:37:49 10° SW 18:41:43 81° SE 18:43:56 23° NE
Cosmos 1340 2.6 18:39:26 10° N 18:43:10 56° E 18:46:53 10° SSE
Meteor 1-19 Rocket 4.4 18:39:00 10° N 18:44:31 50° ENE 18:50:05 10° SSE
Cosmos 1238 Rocket 2.3 18:41:40 10° N 18:44:32 44° E 18:45:29 31° SE
DELTA 2 R/B (1) 3.9 18:40:05 10° WNW 18:45:35 54° NNE 18:48:39 25° ENE
Hubble Space Telescope 3.1 18:48:14 10° S 18:49:25 11° SSE 18:49:46 11° SSE
Cosmos 2181 Rocket 3.9 18:44:00 10° N 18:50:14 68° E 18:56:32 10° SSE
Cosmos 2322 Rocket 2.8 18:46:30 10° NNW 18:52:01 59° WSW 18:57:30 10° S
Cosmos 1300 Rocket 3.5 18:49:58 10° S 18:54:22 85° W 18:58:49 10° N
Tiangong 2 1.5 18:51:34 10° NW 18:54:31 43° NNE 18:54:33 43° NNE
Cosmos 1536 2.8 18:52:51 10° S 18:56:46 57° E 19:00:41 10° NNE
Meteor 1-13 Rocket 4.1 18:53:27 10° N 18:59:01 80° E 19:04:41 10° S
Resurs 1-3 3.6 18:56:04 10° SSE 19:00:22 59° ENE 19:04:41 10° N
CZ-2D R/B 3.8 19:03:05 39° NE 19:03:05 39° NE 19:05:58 10° N
FENGYUN 3A 3.6 18:58:08 10° SSE 19:03:33 86° W 19:08:59 10° NNW
Cosmos 1140 Rocket 3.7 18:59:30 10° SSW 19:04:36 70° WNW 19:09:45 10° NNE
Cosmos 2074 Rocket 4.0 18:58:36 10° SSE 19:04:41 57° E 19:10:47 10° NNE
Cosmos 2322 3.8 18:59:14 10° N 19:04:50 54° ENE 19:07:31 30° SE
Cosmos 2184 Rocket 4.0 18:59:13 10° SSE 19:05:22 55° E 19:11:29 10° NNE
SL-19 R/B 4.2 19:01:38 10° SSE 19:07:13 84° ENE 19:13:05 10° NNW
Cosmos 1461 3.6 19:06:16 10° NW 19:10:12 51° WSW 19:13:35 14° S
Meteor 1-23 Rocket 4.4 19:05:18 10° N 19:10:55 49° E 19:12:58 34° SE
H-2A R/B 2.5 19:10:08 36° SSE 19:11:33 88° ENE 19:15:17 10° N
Spot 2 Rocket 3.4 19:08:37 10° SSE 19:13:40 87° WSW 19:18:45 10° NNW
Cosmos 614 Rocket 4.1 19:11:54 10° SSW 19:16:58 72° WNW 19:22:03 10° NNE
COSMOS 2428 3.5 19:12:38 10° N 19:16:58 34° NE 19:16:58 34° NE
Cosmos 2237 4.4 19:12:55 10° N 19:18:26 46° ENE 19:18:32 46° ENE
Meteor 2-4 Rocket 3.5 19:13:07 10° N 19:18:39 72° E 19:22:38 19° SSE
Helios 1A 3.9 19:21:30 36° N 19:21:30 36° N 19:24:07 10° N
Cosmos 1850 Rocket 4.1 19:18:06 10° SSW 19:23:22 77° WNW 19:28:43 10° NNE
Okean 1 Rocket 4.0 19:20:58 10° SSW 19:25:18 49° W 19:29:40 10° N
SL-24 R/B 4.5 19:21:51 10° S 19:26:55 89° E 19:32:32 10° N
GPS 2-04 Rocket1 3.4 19:27:15 10° WSW 19:30:46 53° SSW 19:30:46 53° SSW
USA 229 DEB 4.5 19:26:12 10° NNW 19:32:15 35° NE 19:32:15 35° NE
USA 229 4.5 19:26:18 10° NNW 19:32:20 34° NE 19:32:20 34° NE
Abrixas rocket 4.5 19:31:42 10° SW 19:33:01 22° SW 19:33:01 22° SW
Cosmos 2219 3.3 19:31:23 10° SSW 19:37:07 76° WNW 19:41:02 21° NNE
Cosmos 2360 Rocket 2.7 19:38:40 10° NNW 19:44:12 58° WSW 19:47:02 28° S
Helios 1B rocket 3.3 19:44:11 46° NW 19:44:33 47° WNW 19:48:31 10° SSW
Cosmos 2219 Rocket 3.9 19:42:20 10° N 19:44:08 19° N 19:44:08 19° N
Okean 1-7 Rocket 4.4 19:43:39 10° NNW 19:48:02 51° W 19:48:13 50° WSW
ATLAS 2A CENTAUR R/B 3.8 20:04:11 10° WSW 20:07:25 32° SSW 20:07:25 32° SSW
Cosmos 2333 Rocket 4.3 20:07:42 10° N 20:09:02 17° N 20:09:02 17° N
Resurs 01 Rocket 4.5 20:11:45 10° SW 20:14:17 15° W 20:16:49 10° WNW
CZ-3 Stage 3 4.3 20:21:47 10° WSW 20:44:41 44° SSW 20:44:41 44° SSW
